Regional Weather Roundup
Issued by NWS

Home | Current Version | Previous Version | Graphics & Text | Print | Product List | Glossary On
Versions: 1 2 3 4 5 6 7 8 9 10 11 12 13 14 15 16 17 18 19 20 21 22 23 24 25 26 27 28 29 30 31 32 33 34 35 36 37 38 39 40 41 42 43 44 45 46 47 48 49 50
000
ASUS45 KCYS 281510
RWRWY

WYOMING REGIONAL WEATHER ROUNDUP
NATIONAL WEATHER SERVICE CHEYENNE WY
900 AM MDT TUE MAR 28 2017

NOTE:  "FAIR" INDICATES FEW OR NO CLOUDS BELOW 12,000 FEET
WITH NO SIGNIFICANT WEATHER AND/OR OBSTRUCTIONS TO VISIBILITY.

WYZ001-281600-
YELLOWSTONE NATIONAL PARK

CITY           SKY/WX    TMP DP  RH WIND       PRES   REMARKS
LK YELLOWSTONE   N/A     26  20  77 CALM      30.14R
W YELLOWSTONE  NOT AVBL

$$
WYZ002>013-054>058-071-098>099-281600-
NORTHERN WYOMING

CITY           SKY/WX    TMP DP  RH WIND       PRES   REMARKS
JACKSON        MOSUNNY   30  27  86 N7        30.12R WCI  23
CODY           CLOUDY    37  32  82 N13       30.12R WCI  29
GREYBULL       CLOUDY    39  34  82 NW29G38   30.06R WCI  27
WORLAND        LGT RAIN  38  36  92 NW18      30.07R WCI  28
SHERIDAN       RAIN      36  33  89 NW17      30.11R FOG     WCI  26
BUFFALO        FLURRIES  37  32  82 NW20G28   30.06R WCI  27
GILLETTE       CLOUDY    43  38  82 NW17      30.03R
HULETT         PTSUNNY   41  36  81 CALM      30.02R
NEWCASTLE      FAIR      45  34  65 N6        30.00R

$$
WYZ014>020-022>026-101>103-281600-
CENTRAL WYOMING

CITY           SKY/WX    TMP DP  RH WIND       PRES   REMARKS
BIG PINEY      CLOUDY    35  24  64 N15       30.04R WCI  25
PINEDALE       CLOUDY    34  27  75 NW17G23   30.03S WCI  23
DUBOIS         CLOUDY    32  28  86 S6        30.05R WCI  26
LANDER         LGT RAIN  36  34  92 NW9       30.05R WCI  29
RIVERTON       CLOUDY    36  32  85 N21G33    30.04R WCI  25
CASPER         CLOUDY    39  37  92 N21       29.99R WCI  29
DOUGLAS        CLOUDY    42  38  85 NE12      29.98R

$$
WYZ021-027>030-104>119-281600-
SOUTHERN WYOMING

CITY           SKY/WX    TMP DP  RH WIND       PRES   REMARKS
EVANSTON       CLOUDY    31  26  82 N20       30.07S WCI  19
KEMMERER         N/A     30  28  93 SW6       30.06R WCI  24
FORT BRIDGER   CLOUDY    33  33  99 W9        30.09R WCI  26
ROCK SPRINGS   HVY SNOW  33  31  92 NW12      30.01R VSB 1/4 WCI  24
DIXON          DRIZZLE   38  36  91 CALM      29.94S
RAWLINS        CLOUDY    38  34  85 N13       29.95S WCI  30
SARATOGA       DRIZZLE   36  36 100 NW6       29.94R WCI  31
LARAMIE        CLOUDY    34  34 100 N8        29.91S FOG     WCI  27
CHEYENNE       CLOUDY    38  37  97 N15       29.89S FOG     WCI  29
TORRINGTON     CLOUDY    45  44  97 E13       29.91S
PINE BLUFFS    CLOUDY    41  41 100 E3        29.90S

$$



USA.gov is the U.S. government's official web portal to all federal, state and local government web resources and services.